AFL306 URKA-LTBS

Flight info

Callsign AFL306
Flight time 1h 45m
Altitude 36000
Route K0817F360 DCT DIBAT G476 ODIRA UW96 SIN UT61 BAG UW77 HALIL UR32 KFK UW78 DESEM N136 BALSU UW78 RIVBU DCT
Aircraft B738/M-SDE2E3FGHIRWXY/LB1

Departure

Time 2026-04-20 12:53
Airport Anapa Vityazevo Airport (URKA)

Arrival

Time 2026-04-20 14:38
Airport Dalaman International Airport (LTBS)
Time Latitude Longitude Altitude Speed Heading
2026-04-20 12:19 45.00277 37.34255 180 ft 0 kts 313°
2026-04-20 12:45 45.00281 37.34249 180 ft 2 kts 313°
2026-04-20 12:46 45.00302 37.34233 180 ft 4 kts 356°
2026-04-20 12:46 45.00327 37.34247 180 ft 4 kts 32°
2026-04-20 12:46 45.00348 37.34271 180 ft 4 kts 43°
2026-04-20 12:46 45.00355 37.34305 180 ft 4 kts 99°
2026-04-20 12:47 45.00341 37.34336 180 ft 4 kts 129°
2026-04-20 12:47 45.00324 37.34364 180 ft 4 kts 132°
2026-04-20 12:47 45.00306 37.34391 180 ft 4 kts 133°
2026-04-20 12:47 45.00282 37.34429 180 ft 7 kts 128°
2026-04-20 12:48 45.00282 37.34508 179 ft 11 kts 50°
2026-04-20 12:48 45.00345 37.34591 179 ft 14 kts 42°
2026-04-20 12:48 45.00426 37.34692 180 ft 17 kts 41°
2026-04-20 12:48 45.00506 37.34795 180 ft 15 kts 42°
2026-04-20 12:49 45.00592 37.34905 180 ft 18 kts 41°
2026-04-20 12:49 45.00692 37.35031 180 ft 20 kts 42°
2026-04-20 12:49 45.00799 37.35166 180 ft 20 kts 42°
2026-04-20 12:49 45.00903 37.35296 180 ft 20 kts 42°
2026-04-20 12:50 45.01000 37.35421 180 ft 11 kts 42°
2026-04-20 12:50 45.01053 37.35491 180 ft 10 kts 49°
2026-04-20 12:50 45.01076 37.35581 179 ft 10 kts 95°
2026-04-20 12:50 45.01062 37.35677 177 ft 11 kts 104°
2026-04-20 12:51 45.01024 37.35743 172 ft 6 kts 172°
2026-04-20 12:51 45.00995 37.35725 172 ft 0 kts 221°
2026-04-20 12:52 45.00979 37.35704 171 ft 14 kts 221°
2026-04-20 12:52 45.00713 37.35371 171 ft 87 kts 221°
2026-04-20 12:53 45.00098 37.34585 171 ft 149 kts 223°
2026-04-20 12:53 44.99232 37.33459 421 ft 180 kts 222°
2026-04-20 12:53 44.98301 37.32279 1256 ft 182 kts 221°
2026-04-20 12:53 44.97319 37.31039 1910 ft 199 kts 223°
2026-04-20 12:54 44.96234 37.29746 2584 ft 206 kts 218°
2026-04-20 12:54 44.95115 37.28413 3241 ft 213 kts 222°
2026-04-20 12:54 44.94023 37.27009 3904 ft 217 kts 225°
2026-04-20 12:54 44.92886 37.25462 4135 ft 240 kts 225°
2026-04-20 12:55 44.91610 37.23780 4062 ft 259 kts 224°
2026-04-20 12:55 44.90270 37.22048 4029 ft 262 kts 223°
2026-04-20 12:55 44.88920 37.20319 4027 ft 262 kts 223°
2026-04-20 12:55 44.87560 37.18620 4024 ft 261 kts 217°
2026-04-20 12:56 44.85876 37.17715 4023 ft 264 kts 185°
2026-04-20 12:56 44.84073 37.17940 4031 ft 265 kts 170°
2026-04-20 12:56 44.82260 37.18471 4018 ft 267 kts 169°
2026-04-20 12:56 44.80420 37.19040 4291 ft 274 kts 169°
2026-04-20 12:57 44.78555 37.19614 5214 ft 274 kts 170°
2026-04-20 12:57 44.76680 37.20183 6113 ft 278 kts 171°
2026-04-20 12:57 44.74766 37.20754 6912 ft 283 kts 171°
2026-04-20 12:57 44.72829 37.21326 7741 ft 286 kts 171°
2026-04-20 12:58 44.70868 37.21901 8580 ft 290 kts 171°
2026-04-20 12:58 44.68883 37.22480 9395 ft 293 kts 171°
2026-04-20 12:58 44.66868 37.23066 10186 ft 297 kts 171°
2026-04-20 12:58 44.64831 37.23657 10948 ft 300 kts 171°
2026-04-20 12:59 44.62776 37.24254 11715 ft 303 kts 171°
2026-04-20 12:59 44.60702 37.24855 12510 ft 305 kts 170°
2026-04-20 12:59 44.58616 37.25460 13280 ft 308 kts 170°
2026-04-20 12:59 44.56484 37.25790 13956 ft 310 kts 187°
2026-04-20 13:00 44.54345 37.25360 14633 ft 312 kts 192°
2026-04-20 13:00 44.52191 37.24860 15286 ft 316 kts 192°
2026-04-20 13:00 44.50007 37.24363 15932 ft 320 kts 192°
2026-04-20 13:00 44.47791 37.23877 16594 ft 324 kts 191°
2026-04-20 13:01 44.45548 37.23402 17254 ft 328 kts 191°
2026-04-20 13:01 44.43309 37.22936 17902 ft 332 kts 191°
2026-04-20 13:01 44.40982 37.22456 18525 ft 336 kts 191°
2026-04-20 13:01 44.38688 37.21984 19071 ft 340 kts 191°
2026-04-20 13:02 44.36335 37.21498 19633 ft 343 kts 191°
2026-04-20 13:02 44.33955 37.21007 20193 ft 347 kts 191°
2026-04-20 13:02 44.31556 37.20511 20761 ft 350 kts 191°
2026-04-20 13:02 44.29130 37.20010 21318 ft 354 kts 191°
2026-04-20 13:03 44.26675 37.19503 21893 ft 356 kts 191°
2026-04-20 13:03 44.24221 37.18996 22532 ft 357 kts 192°
2026-04-20 13:03 44.21747 37.18484 23042 ft 361 kts 192°
2026-04-20 13:03 44.19246 37.17967 23572 ft 366 kts 192°
2026-04-20 13:04 44.16721 37.17446 24025 ft 368 kts 191°
2026-04-20 13:04 44.14181 37.16925 24516 ft 369 kts 192°
2026-04-20 13:04 44.11633 37.16418 25023 ft 371 kts 190°
2026-04-20 13:04 44.09050 37.16068 25497 ft 374 kts 188°
2026-04-20 13:05 44.06446 37.15795 25955 ft 376 kts 187°
2026-04-20 13:05 44.03832 37.15524 26418 ft 378 kts 188°
2026-04-20 13:05 44.01209 37.15234 26940 ft 377 kts 188°
2026-04-20 13:05 43.98632 37.14939 27541 ft 374 kts 188°
2026-04-20 13:06 43.96054 37.14575 28143 ft 371 kts 191°
2026-04-20 13:06 43.93502 37.14100 28633 ft 371 kts 192°
2026-04-20 13:06 43.90950 37.13584 29146 ft 369 kts 192°
2026-04-20 13:06 43.88414 37.13069 29576 ft 371 kts 192°
2026-04-20 13:07 43.85818 37.12545 29660 ft 382 kts 192°
2026-04-20 13:07 43.83150 37.12015 29776 ft 391 kts 192°
2026-04-20 13:07 43.80428 37.11483 29912 ft 399 kts 192°
2026-04-20 13:07 43.77652 37.10947 30126 ft 405 kts 191°
2026-04-20 13:08 43.74853 37.10410 30416 ft 407 kts 191°
2026-04-20 13:08 43.72040 37.09872 30795 ft 407 kts 191°
2026-04-20 13:08 43.69241 37.09335 31221 ft 405 kts 191°
2026-04-20 13:08 43.66456 37.08802 31662 ft 403 kts 191°
2026-04-20 13:09 43.63682 37.08271 32066 ft 402 kts 191°
2026-04-20 13:09 43.60910 37.07741 32422 ft 402 kts 191°
2026-04-20 13:09 43.58144 37.07216 32799 ft 401 kts 191°
2026-04-20 13:09 43.55367 37.06690 32937 ft 406 kts 191°
2026-04-20 13:10 43.52546 37.06154 32993 ft 413 kts 191°
2026-04-20 13:10 43.49672 37.05608 33095 ft 419 kts 191°
2026-04-20 13:10 43.46803 37.05064 33265 ft 422 kts 191°
2026-04-20 13:10 43.43891 37.04513 33573 ft 422 kts 191°
2026-04-20 13:11 43.40988 37.03965 33982 ft 420 kts 191°
2026-04-20 13:11 43.38101 37.03421 34315 ft 418 kts 191°
2026-04-20 13:11 43.35219 37.02876 34556 ft 418 kts 191°
2026-04-20 13:11 43.32327 37.02330 34767 ft 419 kts 191°
2026-04-20 13:12 43.29439 37.01784 35009 ft 419 kts 191°
2026-04-20 13:12 43.26555 37.01240 35268 ft 418 kts 191°
2026-04-20 13:12 43.23670 37.00695 35482 ft 419 kts 191°
2026-04-20 13:13 43.17828 36.99592 35596 ft 428 kts 191°
2026-04-20 13:13 43.14867 36.99037 35714 ft 430 kts 191°
2026-04-20 13:13 43.11896 36.98490 35931 ft 430 kts 190°
2026-04-20 13:13 43.08925 36.97975 36186 ft 429 kts 190°
2026-04-20 13:14 43.05957 36.97472 36390 ft 430 kts 190°
2026-04-20 13:14 43.03028 36.96978 36581 ft 430 kts 190°
2026-04-20 13:14 43.00022 36.96467 36807 ft 429 kts 190°
2026-04-20 13:14 42.97064 36.95961 37030 ft 429 kts 190°
2026-04-20 13:15 42.94104 36.95454 37224 ft 429 kts 190°
2026-04-20 13:15 42.91148 36.94946 37408 ft 429 kts 190°
2026-04-20 13:15 42.88232 36.94445 37591 ft 428 kts 190°
2026-04-20 13:16 42.82261 36.93418 37656 ft 435 kts 190°
2026-04-20 13:16 42.76199 36.92378 37727 ft 442 kts 191°
2026-04-20 13:16 42.73263 36.91252 37690 ft 438 kts 210°
2026-04-20 13:17 42.70768 36.88940 37801 ft 433 kts 225°
2026-04-20 13:17 42.68807 36.85875 37929 ft 429 kts 240°
2026-04-20 13:17 42.67400 36.82315 38082 ft 427 kts 244°
2026-04-20 13:18 42.64791 36.74991 38066 ft 433 kts 245°
2026-04-20 13:18 42.62189 36.67646 38060 ft 435 kts 245°
2026-04-20 13:19 42.59518 36.60248 38068 ft 437 kts 245°
2026-04-20 13:19 42.56812 36.52843 38067 ft 438 kts 244°
2026-04-20 13:20 42.54093 36.45437 38063 ft 438 kts 244°
2026-04-20 13:20 42.51376 36.38058 38061 ft 437 kts 244°
2026-04-20 13:21 42.48664 36.30707 38070 ft 434 kts 244°
2026-04-20 13:21 42.45965 36.23407 38060 ft 432 kts 244°
2026-04-20 13:22 42.43275 36.16151 38061 ft 430 kts 244°
2026-04-20 13:22 42.40613 36.08989 38063 ft 427 kts 244°
2026-04-20 13:23 42.37942 36.01820 38064 ft 426 kts 244°
2026-04-20 13:23 42.35277 35.94685 38067 ft 425 kts 244°
2026-04-20 13:24 42.32609 35.87558 38069 ft 425 kts 244°
2026-04-20 13:24 42.29932 35.80427 38071 ft 426 kts 244°
2026-04-20 13:25 42.27244 35.73285 38069 ft 427 kts 244°
2026-04-20 13:25 42.24545 35.66128 38068 ft 429 kts 244°
2026-04-20 13:26 42.21830 35.58947 38068 ft 430 kts 244°
2026-04-20 13:26 42.19100 35.51741 38066 ft 432 kts 244°
2026-04-20 13:27 42.16375 35.44565 38070 ft 433 kts 244°
2026-04-20 13:27 42.13621 35.37329 38081 ft 434 kts 244°
2026-04-20 13:28 42.10869 35.30086 38070 ft 434 kts 244°
2026-04-20 13:28 42.08120 35.22859 38073 ft 433 kts 244°
2026-04-20 13:29 42.05373 35.15650 38075 ft 432 kts 244°
2026-04-20 13:29 42.02485 35.08633 38074 ft 432 kts 236°
2026-04-20 13:30 41.98375 35.02723 38086 ft 435 kts 224°
2026-04-20 13:30 41.94567 34.98240 38070 ft 434 kts 223°
2026-04-20 13:31 41.90033 34.92890 38066 ft 433 kts 224°
2026-04-20 13:31 41.85554 34.87556 38065 ft 432 kts 224°
2026-04-20 13:32 41.81056 34.82184 38060 ft 433 kts 224°
2026-04-20 13:32 41.76558 34.76819 38041 ft 433 kts 224°
2026-04-20 13:33 41.72053 34.71458 38013 ft 433 kts 224°
2026-04-20 13:33 41.67550 34.66109 38024 ft 433 kts 224°
2026-04-20 13:34 41.63039 34.60760 38018 ft 434 kts 224°
2026-04-20 13:34 41.58546 34.55441 38005 ft 435 kts 224°
2026-04-20 13:35 41.54022 34.50088 38002 ft 435 kts 224°
2026-04-20 13:35 41.49504 34.44719 37995 ft 435 kts 224°
2026-04-20 13:36 41.44979 34.39347 37978 ft 436 kts 224°
2026-04-20 13:36 41.40440 34.33970 37985 ft 436 kts 224°
2026-04-20 13:37 41.35903 34.28602 37987 ft 437 kts 224°
2026-04-20 13:37 41.31348 34.23233 37974 ft 438 kts 224°
2026-04-20 13:38 41.26773 34.17879 37982 ft 438 kts 224°
2026-04-20 13:38 41.22220 34.12562 37970 ft 438 kts 224°
2026-04-20 13:39 41.17641 34.07217 37968 ft 438 kts 224°
2026-04-20 13:39 41.13063 34.01881 37982 ft 438 kts 224°
2026-04-20 13:40 41.08484 33.96552 37979 ft 438 kts 224°
2026-04-20 13:40 41.03906 33.91234 37962 ft 437 kts 224°
2026-04-20 13:41 40.99317 33.85916 37969 ft 437 kts 224°
2026-04-20 13:41 40.94735 33.80614 37979 ft 437 kts 224°
2026-04-20 13:42 40.90158 33.75329 37977 ft 437 kts 224°
2026-04-20 13:42 40.83282 33.67407 37984 ft 437 kts 224°
2026-04-20 13:43 40.78717 33.62161 37983 ft 438 kts 224°
2026-04-20 13:43 40.74119 33.56887 37968 ft 438 kts 224°
2026-04-20 13:44 40.69519 33.51621 37975 ft 438 kts 224°
2026-04-20 13:44 40.64908 33.46351 37972 ft 438 kts 224°
2026-04-20 13:45 40.60332 33.41131 37962 ft 438 kts 224°
2026-04-20 13:45 40.55725 33.35888 37979 ft 438 kts 224°
2026-04-20 13:46 40.51106 33.30637 37979 ft 439 kts 224°
2026-04-20 13:46 40.46478 33.25388 37969 ft 439 kts 224°
2026-04-20 13:47 40.41855 33.20155 37972 ft 439 kts 224°
2026-04-20 13:47 40.37226 33.14924 37974 ft 439 kts 224°
2026-04-20 13:48 40.32592 33.09697 37971 ft 439 kts 224°
2026-04-20 13:48 40.27958 33.04479 37966 ft 439 kts 224°
2026-04-20 13:49 40.23346 32.99298 37965 ft 439 kts 224°
2026-04-20 13:49 40.18705 32.94089 37955 ft 439 kts 224°
2026-04-20 13:50 40.14066 32.88891 37965 ft 439 kts 224°
2026-04-20 13:50 40.09423 32.83701 37975 ft 439 kts 224°
2026-04-20 13:51 40.04418 32.79087 37972 ft 445 kts 211°
2026-04-20 13:51 39.98884 32.75443 37983 ft 445 kts 210°
2026-04-20 13:52 39.93345 32.71819 37984 ft 445 kts 210°
2026-04-20 13:52 39.87823 32.68152 37994 ft 445 kts 211°
2026-04-20 13:53 39.82310 32.64470 37987 ft 445 kts 211°
2026-04-20 13:53 39.76803 32.60794 37997 ft 445 kts 211°
2026-04-20 13:54 39.71329 32.57148 37990 ft 445 kts 211°
2026-04-20 13:54 39.65817 32.53484 37988 ft 444 kts 211°
2026-04-20 13:55 39.60315 32.49833 38000 ft 444 kts 211°
2026-04-20 13:55 39.54817 32.46191 37992 ft 444 kts 211°
2026-04-20 13:56 39.49320 32.42553 37992 ft 444 kts 211°
2026-04-20 13:56 39.43812 32.38918 37991 ft 444 kts 211°
2026-04-20 13:57 39.41199 32.36849 37964 ft 437 kts 224°
2026-04-20 13:57 39.39076 32.34092 38009 ft 430 kts 235°
2026-04-20 13:57 39.37439 32.30885 37996 ft 425 kts 247°
2026-04-20 13:57 39.36297 32.27370 38008 ft 423 kts 250°
2026-04-20 13:58 39.34136 32.20284 37978 ft 424 kts 250°
2026-04-20 13:58 39.31937 32.13195 37991 ft 425 kts 250°
2026-04-20 13:59 39.29719 32.06158 37998 ft 426 kts 250°
2026-04-20 13:59 39.27476 31.99076 37980 ft 427 kts 250°
2026-04-20 14:00 39.25226 31.91987 37994 ft 427 kts 250°
2026-04-20 14:00 39.22973 31.84901 37995 ft 427 kts 250°
2026-04-20 14:01 39.20709 31.77816 37967 ft 427 kts 250°
2026-04-20 14:01 39.18432 31.70735 37987 ft 427 kts 250°
2026-04-20 14:02 39.16157 31.63670 37986 ft 427 kts 250°
2026-04-20 14:02 39.13880 31.56607 37984 ft 426 kts 250°
2026-04-20 14:03 39.11602 31.49557 37982 ft 426 kts 250°
2026-04-20 14:03 39.09340 31.42571 37981 ft 425 kts 250°
2026-04-20 14:04 39.07060 31.35548 37984 ft 425 kts 250°
2026-04-20 14:04 39.04779 31.28539 37976 ft 424 kts 249°
2026-04-20 14:05 39.02496 31.21539 37976 ft 424 kts 249°
2026-04-20 14:05 39.00210 31.14548 37967 ft 424 kts 249°
2026-04-20 14:06 38.97921 31.07567 37970 ft 424 kts 249°
2026-04-20 14:06 38.95627 31.00585 37970 ft 424 kts 249°
2026-04-20 14:07 38.93328 30.93604 37969 ft 425 kts 249°
2026-04-20 14:07 38.91020 30.86615 37972 ft 425 kts 249°
2026-04-20 14:08 38.88707 30.79623 37963 ft 426 kts 249°
2026-04-20 14:08 38.86386 30.72626 37971 ft 426 kts 249°
2026-04-20 14:09 38.84064 30.65634 37968 ft 426 kts 249°
2026-04-20 14:09 38.81656 30.58677 37962 ft 429 kts 242°
2026-04-20 14:10 38.77911 30.52747 37954 ft 436 kts 225°
2026-04-20 14:10 38.72936 30.48208 37970 ft 441 kts 217°
2026-04-20 14:11 38.67765 30.43973 37967 ft 441 kts 217°
2026-04-20 14:11 38.62614 30.39706 37969 ft 440 kts 217°
2026-04-20 14:12 38.60045 30.37558 37828 ft 443 kts 217°
2026-04-20 14:12 38.57449 30.35378 37319 ft 446 kts 217°
2026-04-20 14:12 38.54857 30.33203 36743 ft 444 kts 217°
2026-04-20 14:12 38.52274 30.31038 36200 ft 442 kts 217°
2026-04-20 14:13 38.49702 30.28883 35600 ft 442 kts 216°
2026-04-20 14:13 38.47133 30.26733 35080 ft 440 kts 216°
2026-04-20 14:13 38.44589 30.24606 34648 ft 435 kts 216°
2026-04-20 14:13 38.42101 30.22527 34229 ft 432 kts 216°
2026-04-20 14:14 38.39601 30.20438 33780 ft 428 kts 216°
2026-04-20 14:14 38.37122 30.18369 33292 ft 424 kts 216°
2026-04-20 14:14 38.34663 30.16322 32842 ft 420 kts 216°
2026-04-20 14:14 38.32232 30.14298 32418 ft 415 kts 216°
2026-04-20 14:15 38.29819 30.12294 31955 ft 412 kts 216°
2026-04-20 14:15 38.27428 30.10309 31529 ft 408 kts 216°
2026-04-20 14:15 38.25065 30.08352 31122 ft 404 kts 216°
2026-04-20 14:15 38.22722 30.06412 30733 ft 400 kts 216°
2026-04-20 14:16 38.20398 30.04486 30347 ft 397 kts 216°
2026-04-20 14:16 38.18089 30.02575 29939 ft 395 kts 216°
2026-04-20 14:16 38.15798 30.00681 29481 ft 391 kts 216°
2026-04-20 14:16 38.13528 29.98807 29030 ft 388 kts 216°
2026-04-20 14:17 38.11276 29.96950 28583 ft 384 kts 216°
2026-04-20 14:17 38.09048 29.95113 28189 ft 380 kts 216°
2026-04-20 14:17 38.06839 29.93293 27803 ft 376 kts 216°
2026-04-20 14:17 38.04646 29.91485 27400 ft 373 kts 216°
2026-04-20 14:18 38.02476 29.89697 27006 ft 370 kts 216°
2026-04-20 14:18 38.01050 29.88521 26750 ft 368 kts 216°
2026-04-20 14:18 37.98220 29.86191 26243 ft 364 kts 216°
2026-04-20 14:18 37.96101 29.84447 25847 ft 362 kts 216°
2026-04-20 14:19 37.93997 29.82717 25485 ft 359 kts 216°
2026-04-20 14:19 37.91904 29.80997 25115 ft 357 kts 216°
2026-04-20 14:19 37.89827 29.79290 24747 ft 355 kts 216°
2026-04-20 14:19 37.88429 29.78142 24498 ft 354 kts 216°
2026-04-20 14:20 37.86395 29.76472 24134 ft 352 kts 216°
2026-04-20 14:20 37.84346 29.74790 23767 ft 350 kts 216°
2026-04-20 14:20 37.82306 29.73119 23380 ft 349 kts 216°
2026-04-20 14:20 37.80270 29.71454 22952 ft 347 kts 216°
2026-04-20 14:21 37.78253 29.69798 22560 ft 344 kts 216°
2026-04-20 14:21 37.76264 29.68125 22177 ft 342 kts 217°
2026-04-20 14:21 37.74296 29.66453 21799 ft 340 kts 217°
2026-04-20 14:21 37.72341 29.64788 21441 ft 337 kts 217°
2026-04-20 14:22 37.70401 29.63137 21082 ft 335 kts 217°
2026-04-20 14:22 37.68470 29.61497 20726 ft 333 kts 217°
2026-04-20 14:22 37.66550 29.59864 20378 ft 331 kts 217°
2026-04-20 14:22 37.64655 29.58258 19995 ft 330 kts 217°
2026-04-20 14:23 37.62753 29.56650 19662 ft 328 kts 217°
2026-04-20 14:23 37.60863 29.55052 19336 ft 327 kts 217°
2026-04-20 14:23 37.58977 29.53458 18984 ft 326 kts 217°
2026-04-20 14:23 37.57098 29.51870 18643 ft 325 kts 217°
2026-04-20 14:24 37.55224 29.50289 18305 ft 323 kts 217°
2026-04-20 14:24 37.53360 29.48713 17909 ft 322 kts 217°
2026-04-20 14:24 37.51501 29.47142 17542 ft 321 kts 217°
2026-04-20 14:24 37.49647 29.45580 17181 ft 320 kts 217°
2026-04-20 14:25 37.47804 29.44029 16840 ft 318 kts 217°
2026-04-20 14:25 37.45971 29.42489 16478 ft 316 kts 217°
2026-04-20 14:25 37.44152 29.40952 16136 ft 314 kts 217°
2026-04-20 14:25 37.42343 29.39419 15793 ft 313 kts 217°
2026-04-20 14:26 37.40545 29.37893 15462 ft 311 kts 217°
2026-04-20 14:26 37.38753 29.36374 15122 ft 310 kts 217°
2026-04-20 14:26 37.36969 29.34862 14792 ft 309 kts 217°
2026-04-20 14:26 37.35192 29.33359 14462 ft 307 kts 217°
2026-04-20 14:27 37.33419 29.31862 14135 ft 307 kts 217°
2026-04-20 14:27 37.31650 29.30370 13792 ft 306 kts 217°
2026-04-20 14:27 37.29903 29.28910 13431 ft 305 kts 217°
2026-04-20 14:27 37.28138 29.27438 13073 ft 304 kts 217°
2026-04-20 14:28 37.26382 29.25974 12733 ft 302 kts 217°
2026-04-20 14:28 37.24638 29.24517 12396 ft 300 kts 216°
2026-04-20 14:28 37.22915 29.23070 12149 ft 296 kts 216°
2026-04-20 14:28 37.21204 29.21630 11837 ft 298 kts 216°
2026-04-20 14:29 37.19471 29.20174 11521 ft 302 kts 216°
2026-04-20 14:29 37.17699 29.18687 11189 ft 310 kts 216°
2026-04-20 14:29 37.15888 29.17167 10889 ft 315 kts 216°
2026-04-20 14:29 37.14067 29.15646 10548 ft 314 kts 216°
2026-04-20 14:30 37.12266 29.14120 10242 ft 311 kts 219°
2026-04-20 14:30 37.10682 29.12300 9945 ft 305 kts 228°
2026-04-20 14:30 37.09262 29.10439 9893 ft 287 kts 229°
2026-04-20 14:30 37.07855 29.08624 9389 ft 292 kts 228°
2026-04-20 14:31 37.06440 29.06834 9035 ft 285 kts 227°
2026-04-20 14:31 37.05064 29.05128 8673 ft 279 kts 226°
2026-04-20 14:31 37.03673 29.03462 8321 ft 275 kts 225°
2026-04-20 14:31 37.02301 29.01829 7963 ft 270 kts 226°
2026-04-20 14:32 37.00945 29.00216 7625 ft 265 kts 226°
2026-04-20 14:32 36.99626 28.98643 7302 ft 260 kts 226°
2026-04-20 14:32 36.98324 28.97089 6968 ft 258 kts 226°
2026-04-20 14:32 36.97028 28.95541 6592 ft 257 kts 225°
2026-04-20 14:33 36.95740 28.94000 6248 ft 257 kts 225°
2026-04-20 14:33 36.94438 28.92443 5904 ft 261 kts 225°
2026-04-20 14:33 36.93151 28.90821 5518 ft 264 kts 228°
2026-04-20 14:33 36.91887 28.89212 5297 ft 252 kts 228°
2026-04-20 14:34 36.90699 28.87710 5185 ft 233 kts 227°
2026-04-20 14:34 36.89599 28.86324 5028 ft 217 kts 228°
2026-04-20 14:34 36.88419 28.85149 4340 ft 230 kts 205°
2026-04-20 14:34 36.86881 28.84572 3823 ft 229 kts 194°
2026-04-20 14:35 36.85380 28.84073 3393 ft 218 kts 196°
2026-04-20 14:35 36.83985 28.83638 3050 ft 198 kts 194°
2026-04-20 14:35 36.82691 28.83176 2726 ft 188 kts 198°
2026-04-20 14:35 36.81480 28.82722 2421 ft 176 kts 195°
2026-04-20 14:36 36.80331 28.82330 2122 ft 165 kts 194°
2026-04-20 14:36 36.79272 28.81968 1824 ft 150 kts 194°
2026-04-20 14:36 36.78270 28.81627 1537 ft 152 kts 205°
2026-04-20 14:36 36.77259 28.81255 1294 ft 152 kts 202°
2026-04-20 14:37 36.76221 28.80927 1026 ft 152 kts 202°
2026-04-20 14:37 36.75226 28.80580 742 ft 144 kts 199°
2026-04-20 14:37 36.74291 28.80239 432 ft 143 kts 195°
2026-04-20 14:37 36.73332 28.79941 217 ft 140 kts 196°
2026-04-20 14:38 36.72403 28.79619 39 ft 140 kts 196°
2026-04-20 14:38 36.71547 28.79328 11 ft 104 kts 195°
2026-04-20 14:38 36.71058 28.79158 12 ft 42 kts 196°
2026-04-20 14:38 36.70925 28.79112 12 ft 13 kts 194°
2026-04-20 14:39 36.70836 28.79084 12 ft 14 kts 194°
2026-04-20 14:39 36.70739 28.79036 12 ft 15 kts 206°
2026-04-20 14:39 36.70652 28.78966 12 ft 15 kts 219°
2026-04-20 14:39 36.70587 28.78889 12 ft 10 kts 228°
2026-04-20 14:40 36.70589 28.78815 14 ft 10 kts 319°
2026-04-20 14:40 36.70652 28.78813 12 ft 10 kts 13°
2026-04-20 14:40 36.70737 28.78842 12 ft 16 kts 15°
2026-04-20 14:40 36.70873 28.78888 12 ft 24 kts 15°
2026-04-20 14:41 36.71035 28.78943 12 ft 24 kts 15°
2026-04-20 14:41 36.71190 28.78997 12 ft 23 kts 15°
2026-04-20 14:41 36.71296 28.79031 12 ft 9 kts
2026-04-20 14:41 36.71332 28.78979 12 ft 8 kts 287°
2026-04-20 14:42 36.71347 28.78904 12 ft 10 kts 282°
2026-04-20 14:42 36.71387 28.78843 12 ft 10 kts
2026-04-20 14:42 36.71463 28.78865 12 ft 13 kts 15°
2026-04-20 14:42 36.71569 28.78902 11 ft 18 kts 15°
2026-04-20 14:43 36.71703 28.78948 11 ft 20 kts 15°
2026-04-20 14:43 36.71837 28.78994 11 ft 20 kts 14°
2026-04-20 14:43 36.71952 28.79034 11 ft 12 kts 16°
2026-04-20 14:43 36.71991 28.79033 11 ft 5 kts 328°
2026-04-20 14:44 36.72007 28.78996 11 ft 5 kts 289°
2026-04-20 14:44 36.72016 28.78958 11 ft 5 kts 285°
2026-04-20 14:44 36.72019 28.78944 12 ft 0 kts 285°